Location: Angwan Shehu
(11.2514°N, 7.4613°E)
Time: 01:31:37
(UTC+00:00)

Tiros 1 - Pass Details

Date: 24 April 2021
Orbit: 630 x 664 km, 48.4° (Epoch: 06 May)

Event Time Altitude Azimuth Distance (km) Brightness Sun altitude
Rises 04:34:08 0° 216° (SW) 2,972 - -10.4°
Exits shadow 04:35:36 - 215° (SW) 2,400 9.6 -10.0°
Reaches altitude 10° 04:36:29 10° 214° (SW) 2,057 9.3 -9.8°
Maximum altitude 04:41:13 75° 130° (SE) 674 7.3 -8.7°
Drops below altitude 10° 04:45:55 10° 44° (NE) 2,035 10.8 -7.6°
Sets 04:48:14 0° 43° (NE) 2,939 11.6 -7.0°
